Regional Weather Roundup
Issued by NWS Newport/Morehead, NC

Current Version | Previous Version | Text Only | Print | Product List | Glossary On
Versions: 1 2 3 4 5 6 7 8 9 10 11 12 13 14 15 16 17 18 19 20 21 22 23 24 25 26 27 28 29 30 31 32 33 34 35 36 37 38 39 40 41 42 43 44 45 46 47 48 49 50
000
ASUS42 KMHX 021825
RWRMHX
WEATHER ROUNDUP FOR EASTERN NORTH CAROLINA
NATIONAL WEATHER SERVICE NEWPORT/MOREHEAD CITY NC
200 PM EDT TUE JUN 02 2015

NOTE: "FAIR" INDICATES FEW OR NO CLOUDS BELOW 12,000 FEET
WITH NO SIGNIFICANT WEATHER AND/OR OBSTRUCTIONS TO VISIBILITY

NCZ015>017-031-032-045>047-102-103-021900-
NORTH COAST

CITY           SKY/WX    TMP DP  RH WIND       PRES   REMARKS
EDENTON          N/A     75  66  72 W15G28    30.00R
ELIZABETH CITY PTSUNNY   84  68  58 S8        29.96F
KITTY HAWK     MOCLDY    83  69  60 S9G17     29.98S
MANTEO         PTSUNNY   82  70  68 S15G21    29.99S

$$

NCZ045>047-081-094-103-104-021900-
CENTRAL COAST

CITY           SKY/WX    TMP DP  RH WIND       PRES   REMARKS
FRISCO         MOSUNNY   82  69  64 S8        30.01F
SWANQUARTER      N/A     86 N/A N/A S14       29.97S

$$

NCZ095-097-098-100-101-021900-
SOUTHERN COAST

CITY           SKY/WX    TMP DP  RH WIND       PRES   REMARKS
BEAUFORT       MOSUNNY   81  73  76 SW16      30.00F
CEDAR ISLAND     N/A     77 N/A N/A W7G15     30.03S
JACKSONVILLE   LGT RAIN  75  70  84 W7        30.01S
PINEY ISLAND   CLOUDY   N/A N/A N/A VRB3      29.99F
WILMINGTON     PTSUNNY   78  71  79 S7        29.99F


$$

NCZ011>013-027>030-043-044-078>080-089-090>093-098-021900-
COASTAL PLAIN

CITY           SKY/WX    TMP DP  RH WIND       PRES   REMARKS
AHOSKIE        LGT RAIN  73  72  95 CALM      30.00F
CLINTON        PTSUNNY   80  70  71 CALM      30.01F
ELIZABETHTOWN  PTSUNNY   81  67  61 S13G18    30.00S
GOLDSBORO      CLOUDY    75  71  85 CALM      29.98F
GREENVILLE     CLOUDY    73  72  94 CALM      30.02F
HAVELOCK       PTSUNNY   86  68  54 SW12G18   30.00F
KENANSVILLE    PTSUNNY   76  70  82 NW6       30.00F
KINSTON        LGT RAIN  72  70  94 CALM      30.01F
NEW BERN       PTSUNNY   87  68  52 W8        29.99F
RICHLANDS      CLOUDY    68  64  88 S13       30.04F THUNDER VSB 3/4
ROCKY MOUNT    CLOUDY    76  66  71 CALM      30.01F
WASHINGTON     LGT RAIN  70  68  94 N6        30.02F
WHITEVILLE     LGT RAIN  73  70  90 S3        30.00F

$$

AMZ130-135-150-152-154-156-158-170-250-252-270-ANZ085-086-088-633-658-670-021900-
MARINE OBSERVATIONS

STATION/POSITION TIME  TEMP    WIND        PRES    WAVE   SWELL
                       AIR SEA DIR/SP/G            HT/PER HT/PER
                 (UTC) (F)     (DEG/KT/KT) (MB)    (FT/S) (FT/S)
CHESAPEAKE LIGHT 1800   72     250/  9/ 10 1016.3
64 E VA BEACH    1750   74 72  160/  8/ 10 1015.8    3/ 8   3/ 8
DUCK             1800   71 55  140/ 11/ 13 1014.1
2 E DUCK         1711      66                N/A     2/ 9
OREGON INLET     1800   80 80  170/ 12/ 16 1015.8
13E OREGON INLT  1800      77                N/A     3/ 8
HATTERAS CG      1800   81 78  190/  6/ 10 1015.9
DIAMOND BUOY     1750   79 82  200/  8/ 10 1016.6    2/ 8   2/ 8
CAPE LOOKOUT     1800   79     200/ 11/ 14 1015.9
BEAUFORT LAB     1800   79 78  190/ 15/ 16 1015.1
30 SE NEW RVR IN 1708   78 78  210/  8/ 12 1017.4
27 SE WRIGHTSVLE 1800      78  220/  8/  8   N/A
5 SE WRIGHTSVLE  1708   78 79  190/ 10/ 14 1016.7
225 S CAPE HAT   1750   77 80  180/  4/  6 1018.0    3/ 8   3/ 8
41 SE CHARLESTON 1750   78 81  140/  6/  8 1016.2    3/ 9   3/ 9

$$



USA.gov is the U.S. government's official web portal to all federal, state and local government web resources and services.